Simultaneous Nadir Overpasses (SNOs) Predictions

Prediction of SNOs between METOP-B and NOAA-19 Satellite Orbit:

Table of predicted SNOs for the next 14.0 days since TLE Epoch: 9/20/2013
Index Date (METOP-B) Time (METOP-B) Lat,Lon (METOP-B) SZA (METOP-B ) Date (NOAA-19) Time (NOAA-19) Lat,Lon (NOAA-19) SZA (NOAA-19 ) Distance(km) Time Diff (sec)
1 09/22/2013 13:34:25 73.81, -29.09 73.64 09/22/2013 13:33:14 73.84, -30.56 73.71 45.74 71
2 09/22/2013 14:25:12 -73.53, 137.59 106.62 09/22/2013 14:24:03 -73.51, 137.51 106.63 3.39 69
3 09/22/2013 15:15:53 73.49, -55.17 73.36 09/22/2013 15:15:11 73.48, -55.20 73.35 1.42 42
4 09/22/2013 16:06:35 -73.46, 112.09 106.66 09/22/2013 16:06:06 -73.44, 112.15 106.68 2.55 29
5 09/22/2013 16:57:16 73.42, -80.67 73.32 09/22/2013 16:57:14 73.41, -80.57 73.31 3.46 2
6 09/22/2013 17:47:57 -73.44, 86.70 106.66 09/22/2013 17:48:10 -73.43, 86.67 106.67 1.56 13
7 09/22/2013 18:38:38 73.40,-106.06 73.32 09/22/2013 18:39:18 73.40,-106.04 73.32 0.63 40
8 09/22/2013 19:29:20 -73.37, 61.20 106.70 09/22/2013 19:30:13 -73.36, 61.31 106.71 3.61 53
9 09/22/2013 20:20:06 73.07,-132.11 73.04 09/22/2013 20:21:17 73.13,-130.95 73.07 38.06 71
10 10/02/2013 15:08:39 74.07, -52.04 77.79 10/02/2013 15:07:31 74.05, -54.57 77.82 77.06 68
11 10/02/2013 15:59:31 -73.54, 114.02 102.72 10/02/2013 15:58:17 -73.51, 114.03 102.74 3.74 74
12 10/02/2013 16:50:12 73.50, -78.73 77.27 10/02/2013 16:49:24 73.49, -78.72 77.26 0.99 48
13 10/02/2013 17:40:54 -73.47, 88.52 102.76 10/02/2013 17:40:21 -73.49, 88.55 102.74 2.52 33
14 10/02/2013 18:31:34 73.48,-104.12 77.27 10/02/2013 18:31:28 73.48,-104.20 77.27 2.45 6
15 10/02/2013 19:22:16 -73.45, 63.13 102.75 10/02/2013 19:22:25 -73.47, 63.08 102.73 3.23 9
16 10/02/2013 20:12:57 73.41,-129.62 77.23 10/02/2013 20:13:31 73.41,-129.56 77.23 2.04 34
17 10/02/2013 21:03:38 -73.43, 37.74 102.75 10/02/2013 21:04:28 -73.41, 37.71 102.77 2.39 50
18 10/02/2013 21:54:21 73.29,-155.24 77.14 10/02/2013 21:55:34 73.34,-154.92 77.19 11.91 73
19 10/02/2013 22:45:13 -72.75, 10.94 103.36 10/02/2013 22:46:20 -72.79, 13.56 103.37 86.45 67
